Wind_Speed
6 6 5 4 5 3 3 4 1 1 1 2 1 1 2 2 2 2 1 4 3 2 2 2 2 3 5 3 5 5 4 2 2 1 0 3 12 19 17 18 22 21 21 20 20 20 18 18 16 13 13 14 14 16 17 18 18 18 18 18 17 16 16 16 16 16 16 17 17 16 16 15 15 14 14 14 14 15 14 14 14 14 14 14 14 14 15 15 15 15 15 15 14 14 14 14 14
5 5 4 2 4 2 0 2 1 0 1 4 1 2 2 1 5 4 1 3 1 4 3 6 7 6 6 7 7 4 3 4 3 3 3 10 17 15 15 19 20 21 21 21 22 19 18 18 16 14 13 14 14 15 16 17 18 18 18 18 17 16 16 16 16 16 16 16 16 16 15 15 14 14 14 14 14 14 14 13 13 13 13 14 14 14 14 15 14 14 14 14 13 13 13 12 12
5 4 3 2 4 3 2 1 2 2 3 5 3 2 1 4 8 3 3 1 6 6 3 3 4 4 2 4 3 1 2 2 4 6 7 14 15 13 16 18 18 20 20 21 22 18 16 17 17 14 14 15 14 15 16 17 17 17 18 18 17 17 16 16 16 16 15 16 16 16 15 15 14 14 13 14 14 14 13 13 13 13 13 13 13 13 14 14 13 13 13 12 12 12 12 12 11
4 4 3 1 1 2 2 0 1 3 5 4 3 3 3 7 7 2 2 4 8 4 2 2 2 3 2 3 2 2 3 3 5 7 9 12 12 15 18 18 18 19 18 19 20 17 15 18 17 16 15 15 15 15 16 17 17 17 17 17 17 17 17 17 16 16 15 15 15 15 15 14 14 14 13 14 14 13 13 13 13 13 13 13 13 13 13 13 13 12 11 11 10 11 11 10 9
4 5 4 2 1 0 2 1 1 3 6 3 3 2 4 6 2 1 3 5 3 2 3 4 2 2 2 4 1 1 4 5 6 7 10 11 12 17 19 18 18 18 17 18 19 16 16 18 17 17 16 15 15 15 16 16 17 17 16 17 16 17 17 17 16 15 14 15 15 15 14 14 14 13 13 13 13 13 13 13 13 13 13 13 13 12 12 12 12 11 10 9 9 9 9 9 8
5 7 7 4 1 0 2 2 2 4 4 3 3 2 2 4 2 2 3 1 1 0 1 3 3 3 3 4 2 3 4 4 6 6 10 12 15 18 19 18 18 17 17 17 17 16 16 18 17 17 16 15 15 15 15 16 16 17 16 16 16 17 17 16 15 14 14 14 15 15 14 14 14 13 12 13 13 13 12 13 13 13 12 12 11 11 11 10 10 9 8 7 7 8 8 8 8
4 3 5 4 2 1 2 4 4 5 2 3 4 2 1 2 2 1 1 1 2 3 2 4 6 5 4 3 4 5 4 1 5 8 10 14 18 18 19 18 17 18 17 17 17 16 17 17 17 17 16 16 15 15 15 15 16 16 16 16 15 16 16 15 14 14 14 14 14 14 14 13 13 12 12 12 12 12 12 12 12 12 12 11 10 9 9 8 8 7 7 7 7 7 7 7 7
4 1 1 1 2 1 2 3 4 3 1 2 3 4 3 2 1 3 2 2 0 1 3 5 6 4 3 1 2 4 6 4 7 11 14 17 18 18 19 18 17 17 17 17 16 16 16 17 18 16 16 16 15 15 14 14 16 17 17 16 15 15 16 15 14 13 14 13 13 13 13 13 12 12 12 12 11 11 11 11 10 10 11 10 9 8 7 7 6 6 6 7 8 8 7 7 8
4 2 1 1 2 1 1 2 3 3 3 3 3 8 6 2 2 5 5 2 1 3 6 5 3 3 4 3 4 4 5 5 11 14 16 18 18 17 17 17 18 18 18 17 16 17 16 16 17 16 16 16 16 15 14 14 15 17 17 17 16 15 15 14 13 13 13 13 12 12 13 12 12 11 11 11 10 10 10 9 9 9 9 8 7 6 6 6 6 6 7 8 9 8 7 7 8
3 2 1 1 1 3 3 3 2 2 4 4 6 10 6 3 5 5 8 5 3 6 6 4 2 5 7 5 5 3 3 8 14 16 16 18 18 17 16 16 18 18 19 19 17 18 16 16 16 16 16 15 15 14 14 14 14 16 17 17 16 15 15 14 13 13 12 12 12 12 11 11 11 10 10 9 9 9 9 9 9 9 8 8 7 6 5 4 4 5 7 8 8 8 7 7 9
1 1 1 1 3 4 4 4 4 3 3 4 7 8 6 6 6 5 7 5 3 8 7 5 4 9 8 5 3 2 5 11 16 17 17 17 17 16 16 16 17 18 20 20 18 17 17 16 15 15 15 15 14 14 13 13 13 14 16 18 16 15 14 13 13 12 12 12 12 11 10 9 10 9 9 9 10 10 10 10 10 11 10 9 8 6 5 4 4 5 7 8 8 7 7 7 9
2 1 1 3 3 4 3 3 4 4 4 4 6 4 3 5 5 7 10 8 6 9 9 8 8 10 8 5 4 4 8 12 15 17 17 17 16 16 15 15 16 17 19 19 19 18 17 16 15 14 14 14 13 13 12 12 12 13 15 17 16 15 14 13 12 12 12 12 11 10 9 9 10 9 9 10 10 10 10 10 10 10 10 9 9 8 7 5 4 5 7 8 8 8 6 7 8
2 2 3 3 1 2 2 2 2 3 3 4 4 2 2 4 7 10 9 9 10 10 10 10 11 8 6 6 4 5 9 12 16 17 17 17 15 15 14 15 16 17 18 18 18 17 17 16 15 14 13 13 12 12 11 12 13 13 14 15 15 14 14 13 12 11 11 11 10 10 10 10 10 9 8 8 9 9 9 10 10 9 9 8 9 9 8 6 4 6 8 9 8 8 6 6 7
2 2 3 2 0 1 2 2 2 2 4 2 3 1 2 4 6 8 6 10 13 8 7 12 13 8 6 6 4 6 9 14 17 17 17 16 15 14 15 15 16 17 17 16 17 17 16 15 14 14 13 12 12 11 10 12 13 13 13 15 15 14 14 12 11 11 11 10 10 9 9 9 8 7 7 7 7 8 8 9 9 9 9 8 8 9 9 6 4 6 8 9 9 8 7 6 6
2 2 2 2 1 2 3 3 1 3 3 2 3 1 3 2 3 6 8 12 9 5 10 11 8 4 8 10 7 10 14 17 18 16 17 16 15 15 15 16 16 16 16 16 17 16 15 14 15 14 13 12 11 10 10 11 12 12 13 15 15 13 13 12 11 11 10 9 8 7 7 7 6 6 6 6 6 7 8 8 8 9 9 8 8 8 9 7 5 5 7 9 9 8 7 6 7
1 2 1 2 3 3 4 4 2 3 2 3 3 2 5 1 1 5 8 6 7 8 8 8 4 1 8 10 8 17 20 19 19 17 18 17 16 16 15 16 16 15 15 16 16 16 16 15 15 14 12 11 10 10 10 10 11 11 12 13 13 13 12 11 11 10 9 8 7 6 6 6 5 5 5 5 5 6 6 7 7 8 8 9 8 8 8 8 5 5 6 8 9 8 7 6 7
1 2 2 3 4 4 5 5 5 1 1 2 1 3 7 3 2 1 3 5 10 11 5 5 2 1 6 8 15 25 23 20 20 19 19 19 18 17 16 17 16 16 15 16 15 15 15 14 14 12 11 10 10 10 11 11 11 11 11 11 12 11 10 10 10 9 8 7 7 6 5 5 4 3 4 3 3 4 5 6 6 6 6 7 8 8 8 8 6 4 6 7 8 8 7 7 8
3 3 3 5 4 4 5 6 5 0 3 3 2 3 5 4 4 3 5 8 10 11 7 6 6 6 9 15 24 27 23 23 22 21 20 19 19 17 17 17 16 17 16 16 15 14 13 13 12 11 10 10 10 10 10 11 11 11 10 11 11 9 8 9 10 9 8 7 6 5 4 4 4 4 4 3 3 3 4 4 5 5 5 5 6 7 8 8 6 3 5 7 8 8 7 7 8
3 2 3 5 4 3 3 4 3 2 5 7 6 3 3 4 6 5 6 11 13 13 9 8 9 10 13 19 25 25 23 24 21 21 20 18 19 18 18 17 16 17 17 17 16 13 12 12 11 10 10 10 10 10 10 10 10 10 10 11 10 8 8 8 8 7 6 5 4 4 3 4 5 6 6 5 5 4 4 4 3 4 4 4 4 5 7 7 7 3 5 7 8 8 7 7 8
3 2 5 5 4 3 4 5 6 5 6 8 7 4 2 4 5 4 7 13 14 12 12 11 12 14 16 19 23 24 23 22 21 20 19 18 18 18 18 17 17 17 16 16 15 12 11 11 11 10 10 10 10 10 10 10 10 10 10 10 9 8 8 8 7 6 6 5 3 4 4 5 6 6 6 6 5 6 5 5 4 5 4 3 3 4 5 6 7 4 3 7 8 8 7 7 7
3 4 4 2 4 5 5 7 8 5 4 4 4 6 2 4 3 5 10 12 10 11 11 10 16 21 20 20 21 23 22 21 20 19 17 17 16 16 17 16 16 16 16 16 14 12 12 11 10 10 10 10 10 10 10 10 11 11 10 9 9 8 7 8 7 6 6 5 4 4 4 4 5 5 5 6 5 5 5 6 6 6 6 4 3 3 4 5 6 5 2 5 7 7 7 7 6
3 3 2 2 4 5 5 4 5 3 2 3 2 5 1 5 3 9 12 7 3 6 6 5 14 22 23 22 21 21 20 18 18 17 17 16 16 16 15 15 15 15 15 14 13 12 11 11 10 9 10 10 10 10 10 10 10 10 9 8 8 7 7 6 6 7 7 6 6 5 4 3 3 4 4 5 5 5 5 5 5 6 8 6 5 4 4 4 5 5 2 3 5 5 6 6 5
4 3 1 4 4 5 4 1 3 3 3 4 3 3 1 5 5 10 9 2 4 2 5 8 13 18 21 23 21 20 18 16 16 16 16 15 16 16 15 15 15 15 13 12 13 12 11 10 10 9 10 10 10 10 10 9 9 8 8 7 7 7 6 5 6 6 6 5 5 4 3 2 2 3 4 5 5 6 5 5 4 5 6 6 7 6 4 4 4 5 3 1 3 3 3 3 2
5 4 1 3 4 6 6 3 3 3 5 4 2 2 5 9 7 8 4 3 2 4 10 12 13 16 19 19 18 18 17 16 16 16 15 15 15 16 15 14 14 14 12 12 13 12 12 10 10 10 9 10 10 10 10 9 9 8 7 6 6 6 5 5 4 5 4 4 3 2 1 2 2 4 4 5 6 6 5 5 4 5 5 5 7 8 7 5 4 4 3 0 2 2 2 2 2
6 6 2 2 3 6 7 4 5 6 6 3 2 3 5 7 8 7 3 4 4 7 13 14 14 16 16 16 17 16 15 15 15 15 14 14 15 15 14 13 13 13 13 13 12 12 11 10 10 9 9 10 10 10 9 10 10 8 6 6 6 5 4 4 4 3 3 2 2 2 3 4 4 4 5 6 6 5 5 5 4 5 5 5 5 6 7 6 4 4 3 2 3 4 4 4 5
5 7 4 5 5 5 5 4 6 6 3 3 2 3 4 5 7 6 3 6 7 9 14 15 15 15 14 14 15 14 13 13 14 14 14 14 15 15 14 14 13 13 13 12 11 11 10 10 10 9 9 9 9 9 9 9 8 7 5 5 6 5 3 3 4 3 3 3 3 4 5 6 6 6 6 7 6 5 5 4 4 4 5 5 5 4 5 6 5 4 5 4 4 5 6 7 8
4 7 5 8 7 5 4 4 5 2 2 6 5 5 5 2 2 3 4 8 10 12 14 15 14 13 12 11 11 11 11 12 13 14 14 15 16 15 15 14 14 13 13 12 11 11 11 11 10 9 9 8 8 8 8 7 6 5 5 5 5 5 5 4 4 4 4 4 4 5 6 7 7 7 8 7 6 5 4 5 5 4 4 5 5 5 5 4 4 4 5 6 6 7 8 10 11
3 5 3 6 5 5 5 4 5 2 2 6 10 7 3 2 0 4 8 10 11 14 16 15 13 11 9 8 8 8 9 11 13 13 13 14 15 15 16 15 14 14 13 12 12 12 12 11 10 9 9 8 7 7 7 6 5 5 5 4 4 5 5 4 4 4 5 5 6 6 6 7 8 9 9 7 6 4 4 4 5 4 3 4 5 6 6 5 4 4 5 6 7 8 9 10 11
2 3 3 3 3 7 7 4 4 4 3 8 11 6 3 3 4 7 9 12 14 15 16 14 13 13 12 10 6 5 8 11 11 11 12 13 13 14 15 15 14 14 13 12 12 12 12 11 10 9 8 8 7 7 6 6 5 5 5 4 4 4 4 4 4 5 5 6 6 6 7 8 9 9 9 8 6 4 4 3 3 3 3 3 4 5 5 6 5 5 5 6 7 8 9 11 12
3 3 2 2 2 6 4 1 2 4 3 7 7 4 3 3 4 7 6 12 15 15 15 13 11 11 10 9 7 5 5 7 8 10 12 12 12 13 14 15 14 13 13 13 13 12 11 10 9 8 7 6 6 6 6 6 6 5 5 4 4 4 4 4 5 5 6 6 6 6 7 8 8 8 9 8 6 4 3 3 3 2 3 3 4 4 4 4 5 5 6 6 7 7 8 10 12
3 3 1 1 3 4 1 2 5 5 2 1 3 2 4 4 5 7 5 11 15 15 15 12 11 12 11 8 7 7 7 4 6 10 12 12 13 13 13 14 15 14 14 14 13 12 10 8 8 8 7 6 5 5 6 7 7 6 6 5 5 5 5 5 5 6 7 7 7 6 7 8 7 8 9 8 6 4 3 3 3 3 4 4 4 4 4 4 5 5 6 6 7 7 8 9 10
1 3 3 1 3 3 2 1 2 3 3 2 2 3 4 4 7 8 7 11 14 14 14 13 14 15 13 9 8 8 3 2 5 9 11 12 13 15 14 15 15 15 15 14 13 11 9 8 7 8 7 6 6 6 6 7 7 7 7 6 6 6 5 6 7 7 8 8 8 7 7 7 7 7 8 8 6 4 4 4 5 5 5 5 5 6 6 5 5 5 5 5 6 7 8 8 9
1 3 4 2 4 3 1 2 4 2 5 3 3 2 3 5 9 11 11 11 12 10 8 11 16 15 12 8 6 8 4 1 5 7 8 10 11 13 15 15 15 14 13 13 12 11 9 8 8 8 7 7 7 7 7 7 7 8 8 8 7 6 6 7 8 8 7 7 7 7 6 6 6 7 7 7 5 4 5 5 5 5 5 5 5 6 6 6 5 6 5 5 6 7 8 9 9
4 2 3 2 3 3 1 3 5 6 4 4 3 5 7 8 10 11 11 12 13 11 7 7 11 11 9 8 7 8 7 4 5 6 8 10 12 13 12 13 13 13 13 12 12 11 10 10 9 8 8 8 8 7 7 8 9 10 9 8 8 8 8 7 8 7 6 6 6 6 6 6 6 7 7 7 6 5 5 5 5 5 5 5 5 5 6 6 6 7 7 7 7 8 9 9 10
6 6 5 2 2 2 0 2 4 5 5 5 7 10 9 10 11 8 8 12 15 13 8 7 9 9 8 9 9 10 9 6 6 8 9 10 14 14 12 13 14 13 13 13 12 11 11 10 10 9 8 9 9 9 9 10 10 9 8 8 8 9 9 9 8 8 7 7 8 8 7 7 7 6 7 7 6 6 6 6 5 5 5 5 5 5 6 7 7 8 9 9 9 10 10 10 10
7 7 5 3 3 2 2 3 4 3 8 9 8 11 9 9 9 6 6 8 13 13 12 12 11 9 8 8 9 10 10 8 7 10 10 11 13 15 15 15 15 14 12 13 14 13 11 10 10 10 9 9 9 9 9 9 8 9 8 8 9 11 12 12 10 9 8 9 9 10 9 9 8 7 7 7 7 7 6 6 6 6 5 5 5 5 6 7 8 8 8 9 10 10 10 10 10
5 5 3 2 3 3 4 3 4 2 5 8 9 12 10 8 7 5 6 6 11 13 12 11 10 9 7 8 9 9 9 8 10 12 12 13 13 13 15 15 14 13 12 14 15 13 11 10 11 11 10 9 8 8 8 8 8 9 9 10 11 13 15 15 13 12 12 12 12 12 12 11 10 8 8 9 8 7 6 5 5 5 5 5 5 5 5 6 7 8 8 9 9 10 10 9 9
4 4 4 2 2 4 4 4 5 0 4 7 11 13 10 7 6 4 5 7 10 10 11 11 10 9 5 4 8 8 6 8 10 11 12 14 13 13 16 15 13 14 14 15 15 13 12 11 11 12 10 9 10 10 10 9 9 9 9 10 12 12 13 15 16 16 16 16 15 15 14 12 11 9 9 10 9 7 7 6 6 6 6 6 6 6 6 7 8 8 9 9 9 9 9 8 9
3 2 4 3 1 3 5 6 6 3 5 7 11 13 10 8 6 4 3 7 10 8 11 13 12 11 7 4 6 7 5 8 9 9 11 13 14 15 16 16 15 15 15 15 15 15 14 12 12 12 11 10 11 11 11 10 10 10 10 11 13 15 14 15 17 17 17 17 16 16 15 14 13 11 9 9 9 8 7 7 7 8 8 9 9 9 9 9 9 9 9 9 9 9 8 8 9
2 2 3 3 2 1 2 7 9 7 6 11 14 13 8 7 7 5 5 8 10 10 13 12 10 10 8 6 7 6 6 6 6 7 9 12 15 14 12 16 18 16 15 17 17 17 16 14 13 13 13 11 11 12 12 12 12 13 14 14 15 17 16 14 15 15 14 14 13 13 13 12 11 11 10 9 8 8 8 7 8 8 9 10 11 9 9 10 10 10 11 10 10 10 10 8 9
2 2 3 3 3 1 2 7 10 11 10 13 13 10 5 4 6 6 5 8 10 11 13 12 10 11 11 9 9 6 3 3 3 5 7 11 15 13 11 16 19 15 14 16 19 19 18 16 15 14 15 14 14 14 13 14 15 15 15 14 14 15 13 11 11 11 10 10 10 11 12 11 10 10 9 9 9 8 8 7 7 8 8 10 11 10 9 10 10 11 12 12 11 11 11 11 12
2 3 4 4 5 6 7 8 6 6 7 7 4 4 3 3 6 7 6 8 9 10 13 14 13 13 12 10 10 9 6 4 3 4 8 11 14 14 12 17 19 15 13 14 19 21 19 18 17 17 17 17 16 15 14 13 13 12 11 10 9 9 10 10 10 10 9 9 9 10 13 13 11 11 10 10 10 9 9 8 8 8 7 8 9 8 8 8 9 11 12 12 13 13 12 13 14
3 3 5 5 6 9 9 6 2 2 4 4 1 0 4 4 5 7 7 9 10 10 12 13 14 13 12 11 9 9 8 7 7 7 8 10 13 13 12 16 18 15 15 17 20 22 20 20 19 18 17 16 15 14 12 11 11 12 12 12 10 9 10 9 8 9 9 8 7 8 11 12 12 11 10 9 9 9 9 9 10 9 8 9 8 7 8 9 9 10 11 13 14 14 13 13 13
3 3 8 9 7 8 8 4 3 2 4 4 1 1 5 4 6 8 9 11 11 10 10 12 13 13 12 11 10 11 10 8 8 8 8 9 12 13 11 13 15 15 18 19 20 21 20 20 19 18 17 16 15 14 13 14 15 15 16 15 13 10 10 9 8 9 9 9 8 8 10 11 11 11 10 9 9 9 9 9 10 10 9 10 10 10 11 12 11 11 12 14 15 14 13 14 14
2 4 8 8 6 6 6 4 5 3 3 4 2 1 4 4 5 8 9 11 12 12 12 12 13 14 13 12 12 13 12 10 9 10 10 10 12 12 11 13 15 17 19 19 19 19 19 19 18 18 18 16 15 14 14 15 15 15 15 14 13 10 8 8 9 10 10 10 10 10 10 11 11 11 11 11 11 10 10 10 11 12 11 11 12 12 13 14 13 13 13 14 14 14 14 15 15
4 7 7 6 4 5 3 3 5 3 2 4 7 6 3 4 6 9 10 11 12 13 13 13 13 14 14 12 13 14 13 11 10 11 11 12 13 13 13 16 17 18 19 19 19 18 19 19 19 19 19 18 16 15 15 14 13 14 14 13 13 10 9 9 10 11 11 12 12 12 12 12 13 12 11 12 12 11 11 12 13 14 13 13 14 14 15 15 15 14 13 13 14 15 15 15 15
8 8 7 6 4 3 2 2 3 3 3 4 11 9 3 3 7 9 9 8 13 15 13 13 13 13 13 12 12 14 13 12 12 11 10 12 15 16 17 18 18 18 19 20 20 19 20 21 20 21 21 19 18 16 16 16 15 16 16 15 14 13 12 11 12 13 14 14 14 14 14 13 13 12 11 11 13 12 13 15 15 15 15 14 14 14 14 15 15 15 15 14 15 15 16 16 16
10 6 5 6 3 2 2 2 1 4 3 2 8 9 4 4 6 10 12 8 12 16 15 17 16 14 13 11 11 12 12 13 13 10 9 12 14 14 15 17 18 19 19 20 20 20 21 21 22 23 22 20 19 18 17 18 18 18 18 17 16 15 14 14 15 15 15 15 15 14 14 13 12 12 12 12 13 14 15 17 17 16 16 15 15 14 13 13 14 14 15 15 15 15 15 15 16
8 5 7 7 4 4 4 3 3 4 2 1 2 5 4 3 2 7 15 15 14 15 16 19 18 16 14 12 10 10 11 12 11 9 8 9 11 11 12 13 16 18 18 20 21 21 21 22 22 24 23 20 19 18 18 19 19 19 18 17 17 16 16 16 16 16 15 14 14 13 14 13 13 13 13 13 14 15 17 19 19 20 20 20 19 18 17 16 15 15 15 14 14 13 12 13 13
8 7 8 8 5 5 5 3 1 1 2 2 1 3 2 2 1 0 9 15 15 15 15 17 18 17 15 14 12 11 11 11 11 10 9 8 9 10 11 12 13 14 15 19 23 22 22 22 21 23 22 19 18 18 18 19 19 18 17 17 17 16 17 17 17 17 16 14 13 13 13 12 13 13 13 13 13 15 18 21 22 22 22 22 21 20 20 19 19 19 17 15 13 12 12 12 12
5 3 4 6 5 4 4 4 3 3 3 3 3 4 2 3 1 3 2 8 13 15 14 15 16 15 14 14 13 12 11 11 11 11 10 10 11 10 11 12 12 12 14 18 21 21 22 22 21 22 21 19 18 18 18 19 19 18 17 17 17 17 17 17 17 16 16 14 14 14 14 13 13 13 13 14 15 18 21 23 23 23 24 24 23 23 22 21 21 20 19 16 13 11 12 13 12
3 1 2 4 4 3 2 1 1 3 4 3 4 3 1 0 1 1 4 11 15 16 16 16 16 14 14 13 13 12 11 11 11 11 10 11 11 11 12 12 12 13 15 17 19 21 21 21 20 20 20 19 18 18 18 19 19 19 18 18 18 18 18 17 16 16 15 15 16 16 15 14 13 13 13 16 19 22 23 24 24 25 25 26 26 25 24 24 23 21 19 18 16 13 13 14 13
3 3 5 3 3 4 3 1 2 1 4 4 3 2 1 1 1 4 10 14 15 16 16 17 16 16 15 13 12 12 12 11 11 11 11 11 12 12 12 12 13 15 17 19 21 21 20 20 20 20 20 19 18 18 18 18 19 20 20 19 19 19 19 17 16 16 16 16 17 17 17 16 14 13 14 17 21 23 24 25 26 27 28 28 28 28 27 26 24 21 19 18 17 15 14 14 14
5 6 6 4 3 2 2 2 2 2 4 3 2 5 6 4 3 8 14 15 15 16 17 16 16 17 15 13 12 13 13 12 11 11 11 12 13 13 12 12 13 17 20 22 22 21 21 21 20 20 19 18 18 18 18 18 19 19 19 19 19 18 17 17 16 17 17 17 17 17 17 16 16 15 16 18 20 22 24 26 27 28 29 29 29 29 29 27 25 21 18 16 16 16 16 15 14
2 5 7 4 3 3 2 2 3 4 4 2 3 6 7 5 5 12 16 16 17 18 18 18 18 17 15 13 14 15 14 13 12 11 10 12 13 13 13 14 15 18 21 21 21 21 21 21 20 20 19 18 18 18 18 18 18 18 17 17 17 17 16 16 17 18 18 18 18 17 17 17 18 18 19 19 20 21 22 24 26 28 29 30 30 29 29 28 25 21 17 16 17 17 16 15 15
2 5 7 2 1 3 3 2 2 3 3 2 3 4 5 6 8 16 19 19 21 21 19 19 19 18 16 14 14 15 14 14 13 11 10 13 14 14 14 15 16 17 18 19 20 21 21 20 19 19 19 18 17 18 18 18 18 18 18 17 17 17 17 17 18 19 20 20 20 19 19 19 20 20 21 21 20 20 21 22 23 25 27 29 29 30 28 26 23 20 17 16 17 18 17 16 16
5 7 8 4 1 0 2 2 1 1 3 3 3 3 4 4 8 17 22 22 22 22 20 18 17 16 15 15 15 15 15 15 13 10 10 14 15 15 15 15 16 16 17 18 19 20 20 19 19 18 18 17 17 17 17 18 18 18 19 18 18 17 18 20 21 22 22 22 23 23 22 22 22 22 22 21 20 21 21 21 22 23 24 25 27 29 27 23 21 19 17 16 18 18 18 17 17
9 8 7 7 5 3 4 4 1 1 1 2 2 2 2 1 2 9 16 19 19 20 18 15 15 16 16 15 16 16 16 15 12 10 11 13 15 15 15 14 15 16 17 17 17 19 19 18 18 17 16 16 15 16 17 17 17 18 19 19 18 18 20 22 24 24 24 25 26 26 24 24 23 21 22 21 21 22 22 21 21 22 22 23 25 27 27 23 21 19 17 17 18 18 18 18 18
Wind_Direction
5 360 4 355 355 4 27 27 284 30 27 263 235 276 266 233 304 261 218 289 290 55 7 40 86 121 118 103 137 109 45 157 137 140 220 92 138 145 144 144 143 142 144 147 151 150 149 150 149 145 131 121 123 128 125 121 122 120 120 118 116 115 116 116 116 117 117 118 117 116 116 115 114 114 113 112 111 109 108 105 105 104 104 104 105 105 108 107 104 103 102 103 104 105 104 103 100
12 7 15 33 24 18 139 18 261 133 241 255 198 206 300 312 280 272 337 302 316 108 92 77 84 75 65 82 109 110 55 22 44 91 88 126 136 140 146 146 145 146 144 148 152 148 147 150 150 146 132 123 121 128 128 125 126 124 124 120 116 116 117 118 118 119 118 118 117 117 116 116 115 115 113 112 110 107 106 104 104 103 104 104 106 107 110 109 104 103 103 104 102 101 101 101 99
23 26 29 93 42 27 114 10 236 186 240 256 239 197 316 275 260 292 350 248 134 134 125 86 92 67 46 121 104 50 89 59 109 112 118 141 142 147 151 148 149 145 143 149 151 147 146 149 150 145 133 125 119 123 126 127 128 126 125 120 117 118 119 119 119 119 119 118 117 117 117 116 115 115 114 111 108 105 103 102 102 101 101 101 105 110 111 108 105 105 105 104 102 99 97 97 97
35 47 43 100 66 29 118 216 202 198 237 257 263 192 219 255 258 320 17 145 140 157 140 123 87 30 315 151 85 48 102 128 136 123 136 152 148 150 152 150 148 141 141 149 150 144 144 148 149 144 134 125 120 121 123 126 126 127 126 121 122 124 123 121 121 120 119 117 116 116 116 116 115 114 112 110 108 105 103 102 102 99 98 98 102 109 111 109 106 105 103 104 103 100 94 92 89
66 66 52 69 169 163 117 164 117 209 223 222 264 202 219 238 236 89 115 133 171 236 136 139 105 62 34 70 42 88 107 120 135 134 141 146 142 147 151 148 143 138 140 148 149 142 143 146 144 141 133 126 123 121 123 126 128 131 130 125 126 127 125 121 122 123 120 119 117 115 115 116 114 112 109 109 107 104 102 98 96 96 97 98 101 105 108 109 107 102 101 105 105 102 95 89 81
94 80 59 66 100 34 153 208 192 215 218 184 242 247 238 225 157 111 111 108 177 108 106 127 120 140 105 65 59 92 86 118 147 146 143 142 141 147 147 143 139 138 139 145 146 137 143 146 140 139 133 128 126 121 121 126 131 134 130 125 125 127 125 123 125 125 122 120 119 116 115 114 112 110 108 105 103 101 99 96 96 96 96 96 100 103 105 107 106 99 97 103 104 101 93 83 70
124 112 48 77 96 346 210 224 217 221 218 176 239 265 194 184 151 36 29 125 126 75 48 116 130 133 109 92 100 83 31 34 154 146 144 142 142 146 146 142 139 140 140 143 141 136 146 146 139 138 134 131 127 121 119 124 133 134 128 123 123 127 126 126 128 127 127 122 119 118 116 115 111 111 108 105 101 98 97 96 97 97 94 91 94 98 103 106 103 94 90 97 103 98 86 73 57
100 126 342 181 144 351 218 227 232 221 221 196 265 260 222 176 198 298 298 155 153 68 107 126 138 129 109 132 116 73 31 58 133 137 139 141 142 146 145 143 138 140 142 141 137 138 148 145 140 138 133 131 126 123 120 123 133 134 130 126 126 130 129 129 129 129 130 123 119 120 120 117 113 109 104 102 99 96 95 94 93 94 95 91 91 93 98 100 98 94 94 102 104 95 78 62 50
60 44 197 221 172 212 221 230 247 227 250 256 260 255 247 210 227 280 265 212 176 172 145 143 154 140 134 125 111 90 52 92 131 135 140 141 142 144 142 144 141 141 142 141 140 141 147 145 141 136 131 130 127 124 123 124 132 135 133 131 132 136 135 131 131 131 128 124 121 122 121 117 112 108 103 100 99 97 94 91 90 93 96 91 90 94 97 97 98 95 100 107 106 94 74 58 52
44 14 158 151 173 222 235 226 235 230 257 268 261 260 265 230 213 232 247 259 180 168 148 135 121 132 135 122 116 97 88 129 137 137 142 143 143 143 140 142 142 142 143 142 142 143 146 146 141 136 132 129 129 127 127 129 133 137 137 137 136 141 141 135 134 133 129 125 122 120 119 116 112 108 102 98 94 94 92 87 84 88 91 89 91 97 99 102 103 97 105 113 109 96 75 60 56
99 39 138 178 195 220 230 230 232 247 279 300 279 263 264 240 222 224 233 254 183 164 158 156 139 129 127 120 122 94 134 144 139 139 143 144 143 141 138 140 143 144 145 144 143 143 146 146 142 138 134 131 131 131 133 136 137 139 142 142 138 143 145 137 135 133 131 126 122 119 114 111 105 98 91 85 81 80 82 79 77 82 86 86 84 81 84 97 111 108 115 120 115 103 80 63 59
178 126 161 196 212 221 223 243 241 266 276 280 271 246 239 218 209 223 213 210 185 168 179 180 159 139 131 138 137 124 150 150 141 143 145 143 141 141 140 140 144 145 145 145 142 144 146 146 143 141 138 136 135 136 140 141 140 140 144 146 142 144 146 140 136 134 132 128 124 121 113 105 97 89 80 74 71 68 68 69 70 76 79 76 71 67 70 86 112 122 125 128 124 113 87 67 63
187 141 164 183 221 205 166 246 242 280 267 240 239 173 153 193 207 219 206 194 182 181 193 174 157 144 129 140 135 139 156 152 145 146 145 142 141 140 139 139 142 144 145 144 143 145 147 146 144 144 142 140 140 142 145 144 145 143 145 152 148 144 145 142 138 134 132 127 124 118 109 103 95 88 78 69 66 65 63 63 65 69 72 67 64 61 62 77 111 131 134 136 131 122 98 75 68
178 156 181 185 118 172 172 230 218 235 252 215 193 168 199 209 227 223 189 182 185 185 162 148 154 144 126 141 149 173 165 153 149 147 144 142 140 137 137 139 141 144 144 144 145 146 147 147 145 146 145 141 140 140 143 146 146 142 142 151 151 145 141 142 138 133 132 127 123 115 106 98 92 84 73 65 64 64 62 65 65 65 68 64 60 58 56 67 104 134 141 142 137 126 105 83 78
177 157 170 193 159 185 199 214 211 216 227 152 157 302 294 240 241 214 193 191 184 148 124 139 170 153 155 170 181 182 163 152 150 145 142 138 137 136 136 139 142 144 145 146 149 149 149 148 146 148 147 143 143 142 143 144 142 139 140 148 151 144 138 140 137 132 130 126 120 114 107 94 83 74 65 61 63 59 58 66 70 67 65 62 58 57 53 57 88 134 149 149 140 128 110 91 88
152 139 135 213 199 194 195 187 180 210 200 152 171 331 333 324 176 207 211 199 145 138 135 147 199 227 175 181 165 161 155 151 149 143 139 136 136 136 136 141 142 142 146 150 151 155 155 150 148 150 149 145 146 145 143 141 141 139 138 145 149 143 139 138 136 135 131 124 122 119 111 97 83 73 67 61 53 48 56 61 67 71 65 62 58 54 51 50 73 132 157 154 143 130 116 98 93
135 166 180 213 206 195 183 180 179 196 259 209 199 13 339 323 123 172 182 148 136 141 115 114 146 338 164 148 134 146 150 149 148 144 141 140 140 139 142 145 145 146 150 154 155 158 156 150 147 148 148 147 147 145 142 141 139 135 134 142 145 141 142 142 138 138 134 130 132 123 110 96 74 63 68 60 40 40 59 55 55 70 68 62 54 51 49 45 59 122 166 161 148 133 119 103 93
180 179 204 216 197 188 181 188 187 274 311 280 312 25 323 283 133 127 134 130 135 130 100 96 93 69 105 121 131 141 146 147 148 146 145 145 146 145 149 148 148 151 152 156 157 155 151 148 146 143 145 147 146 143 140 137 136 135 136 139 139 136 140 146 143 141 139 138 136 121 101 77 56 66 73 59 50 58 76 56 42 54 61 59 48 45 46 43 47 98 169 164 154 139 122 109 97
195 150 215 220 178 183 194 200 207 239 285 307 316 1 301 238 141 148 162 151 149 138 127 122 114 105 116 129 136 142 146 148 149 149 149 151 152 151 150 149 151 152 153 156 157 154 148 145 144 143 146 146 143 138 134 135 138 138 137 137 137 134 134 143 147 144 141 137 134 117 92 74 72 78 73 58 55 69 85 72 45 37 41 49 40 35 40 40 35 58 162 164 158 144 128 118 110
191 182 230 223 182 227 232 223 238 238 275 306 309 335 289 205 148 167 171 162 168 159 146 145 148 141 140 143 141 145 149 149 151 150 151 153 154 153 149 151 153 153 154 155 156 154 148 143 143 146 148 144 138 135 133 136 140 140 139 140 137 133 131 136 143 144 142 139 136 124 100 87 84 72 62 63 59 58 59 50 40 27 21 23 24 21 29 36 31 38 143 164 158 146 136 128 121
169 199 228 181 158 229 235 223 243 250 262 283 303 324 282 165 148 167 160 165 186 184 171 167 166 157 151 151 146 148 150 151 155 152 152 153 152 152 151 150 150 153 153 153 155 152 147 144 144 148 148 142 136 135 135 136 141 142 141 141 135 130 127 126 130 132 137 140 135 128 106 86 80 65 54 57 53 47 42 34 30 24 20 8 360 3 6 29 34 31 94 158 159 147 139 135 128
174 199 227 169 161 230 251 226 236 235 224 236 277 314 267 151 171 173 171 181 204 196 191 179 168 160 155 153 147 149 151 153 156 155 154 154 153 151 148 145 145 151 153 152 153 150 148 146 146 149 147 142 137 136 134 134 141 143 139 137 131 125 122 119 118 121 127 133 136 133 114 83 66 62 45 36 31 28 28 26 26 23 23 16 6 2 344 6 30 29 50 151 159 151 146 144 141
212 195 209 229 208 236 266 220 202 191 224 259 260 300 184 171 179 172 181 284 341 118 133 143 160 159 152 147 145 149 152 153 155 156 157 154 151 148 145 144 147 151 150 151 152 150 149 149 150 151 148 143 139 134 133 137 142 139 135 134 128 121 121 120 117 118 120 126 136 140 123 85 45 38 24 16 14 14 17 15 17 17 21 21 15 13 354 344 7 23 30 158 170 161 166 171 171
231 214 214 234 213 233 251 243 232 235 251 264 233 246 212 193 172 162 169 19 34 114 121 137 149 149 145 141 142 149 149 150 154 156 155 149 142 143 145 146 150 153 148 149 152 152 152 153 154 151 147 143 139 137 137 139 137 132 131 131 126 120 122 123 118 115 114 120 131 133 88 34 14 10 3 2 1 4 8 3 6 10 12 16 15 16 12 358 341 357 14 283 220 209 226 256 277
222 221 235 233 211 232 246 256 258 259 254 232 189 225 216 187 148 140 128 85 109 120 125 135 140 142 140 138 142 148 147 147 150 148 146 139 134 140 146 148 151 152 149 151 153 154 155 154 153 150 148 145 143 142 138 136 134 133 133 128 118 116 122 117 106 101 96 92 75 33 8 1 356 357 356 357 358 357 356 352 355 3 4 2 8 13 15 13 350 331 331 310 260 238 244 263 278
206 208 226 243 245 254 253 260 251 253 231 172 136 121 129 133 128 123 108 113 120 120 125 129 135 137 135 138 143 142 137 136 140 138 133 130 136 144 145 147 151 151 150 151 152 153 153 151 148 148 148 146 144 141 133 132 135 133 131 121 110 107 106 94 87 79 69 55 30 8 357 352 351 353 354 355 358 358 355 352 350 358 1 354 358 1 6 10 358 334 312 303 285 258 252 257 265
171 196 228 246 257 280 262 261 252 260 227 180 142 124 125 121 166 140 123 125 122 122 122 123 127 126 125 130 134 132 126 130 135 132 130 133 142 147 145 148 150 151 151 149 150 151 151 148 144 143 141 138 136 133 132 132 131 128 121 113 106 96 86 78 68 55 44 31 14 2 355 352 353 354 354 353 353 356 1 4 3 5 3 352 349 348 350 347 336 325 309 300 292 277 265 263 266
149 185 238 247 258 273 241 255 254 234 245 177 138 131 117 48 304 129 129 126 121 121 115 110 104 87 80 90 108 124 126 131 132 132 137 143 148 149 147 150 150 150 150 150 150 149 150 147 141 138 132 129 128 125 129 129 121 115 105 99 97 82 72 62 50 42 30 22 14 9 6 3 2 0 358 353 349 352 356 4 8 8 6 353 348 346 339 331 319 305 300 297 295 288 279 274 274
139 169 248 243 266 259 227 240 242 193 188 158 137 134 104 56 83 111 125 128 121 113 100 87 77 63 47 42 61 118 131 129 128 132 136 140 149 151 147 149 149 147 148 149 149 148 149 146 144 141 131 123 119 117 119 117 107 99 89 88 82 69 61 47 39 34 22 21 27 25 20 13 8 8 5 357 351 351 350 355 1 5 11 2 354 349 339 334 328 311 300 297 294 291 286 283 281
159 152 267 245 251 248 215 129 180 162 152 155 154 167 126 80 83 92 115 131 121 105 95 88 84 83 69 49 36 32 60 99 118 131 133 137 148 151 148 149 150 148 147 147 146 147 147 147 150 145 135 125 115 112 112 109 103 93 88 87 80 70 62 50 37 31 26 28 35 30 20 18 17 14 12 8 8 10 5 3 8 11 12 8 355 348 348 340 329 320 314 307 299 294 290 288 286
170 158 232 234 220 219 121 91 177 158 105 160 226 207 118 104 99 73 76 120 115 107 106 105 102 102 98 90 77 49 16 27 116 130 137 145 150 152 151 149 154 153 147 145 144 146 144 143 145 139 137 131 118 118 113 107 101 95 91 84 82 79 66 54 41 35 39 39 37 28 21 26 26 18 13 13 22 38 44 34 34 28 14 16 3 352 353 339 327 324 319 312 306 300 296 293 290
139 188 194 181 212 212 44 36 211 159 112 15 288 175 98 99 106 73 64 103 109 115 121 120 113 105 101 96 90 86 39 346 103 117 136 147 149 153 154 154 158 156 151 148 143 142 137 127 128 132 138 131 121 122 116 107 101 97 91 83 78 74 66 60 53 46 46 42 36 34 33 33 30 23 20 22 30 42 50 43 37 31 22 21 10 0 354 340 331 323 318 315 309 304 299 297 294
164 217 197 167 198 216 25 65 355 4 129 79 339 155 86 92 103 79 70 87 89 86 97 115 114 107 105 108 107 108 115 104 90 104 127 135 143 148 154 159 162 162 161 153 143 141 138 131 134 134 127 118 114 115 115 111 105 98 89 82 72 63 63 63 59 51 48 46 44 45 45 46 43 36 32 35 44 49 49 47 41 34 29 26 15 3 351 343 336 324 318 315 310 308 303 300 298
178 199 197 189 189 196 181 114 21 2 124 119 57 79 70 74 87 85 87 96 93 72 52 77 98 104 112 119 128 124 128 130 110 120 127 129 137 139 143 148 153 160 159 151 145 144 139 132 131 126 116 110 109 110 113 112 105 96 85 75 68 63 63 64 62 55 54 61 63 61 59 60 58 48 43 45 52 56 53 49 44 34 28 19 5 349 337 336 339 332 324 317 313 311 304 299 298
160 169 184 193 180 189 295 88 8 358 87 100 94 90 76 73 83 97 114 123 124 119 119 119 112 121 127 129 139 136 132 134 123 128 128 122 126 133 139 137 138 143 143 146 146 140 136 127 116 116 121 118 112 106 105 106 100 90 79 71 71 69 69 74 73 67 66 69 67 65 63 62 58 50 48 47 46 47 42 38 33 24 15 5 353 341 335 334 334 331 326 318 313 310 305 301 301
150 168 182 180 176 158 76 62 352 12 77 70 94 105 94 89 98 129 158 143 130 128 136 141 138 132 126 130 138 136 134 136 127 122 122 117 118 129 135 131 133 137 138 140 134 128 130 126 116 117 122 119 111 104 101 102 98 93 88 83 83 82 85 88 84 79 74 68 66 65 63 62 60 55 51 47 43 40 34 28 22 14 6 1 354 348 342 335 330 327 321 315 312 312 309 308 314
142 158 162 166 166 108 81 52 350 326 77 69 95 100 95 102 111 141 175 151 120 123 138 142 137 127 127 140 133 127 129 120 107 105 109 111 111 117 121 120 122 126 130 127 120 121 126 125 123 122 122 117 110 108 103 98 97 96 94 91 90 88 87 86 86 88 84 77 73 69 66 66 68 65 59 59 57 52 47 38 31 24 15 10 2 352 343 338 335 332 326 321 320 319 316 315 323
123 157 156 167 164 98 90 37 6 62 101 98 103 90 90 108 116 137 161 137 116 123 137 125 101 78 67 143 127 110 109 94 86 84 87 95 94 98 109 112 105 102 110 116 118 125 129 126 124 123 123 117 110 108 103 99 96 94 96 100 102 98 91 88 90 92 89 83 76 71 69 69 71 69 64 64 64 61 58 53 48 41 33 27 17 5 356 349 347 345 341 337 330 322 317 314 322
108 142 148 167 168 117 111 53 37 86 104 120 109 90 93 96 100 117 110 108 99 99 116 107 89 69 42 45 69 49 50 73 77 75 80 91 90 90 100 105 104 102 104 111 118 122 122 121 120 120 121 115 109 107 105 105 102 99 102 108 111 107 102 100 98 95 91 86 78 72 68 65 65 65 63 61 58 56 54 52 47 41 34 27 17 8 3 357 352 351 350 345 337 329 323 315 319
127 136 157 159 140 162 122 67 66 79 105 132 114 95 98 88 87 83 73 101 96 95 110 104 99 100 91 77 67 36 11 38 58 69 86 97 89 85 95 105 109 106 101 107 114 115 114 114 117 120 119 113 109 109 109 110 108 108 109 110 109 105 103 103 99 93 87 84 78 72 68 64 62 62 60 54 51 49 45 43 37 29 24 18 13 7 3 359 355 354 351 346 341 334 329 319 315
181 179 184 133 112 81 95 105 96 84 102 130 117 99 97 91 106 98 98 119 105 108 120 115 113 111 110 116 111 101 45 28 37 54 88 101 89 86 95 105 107 102 95 103 111 112 112 112 114 116 114 109 106 108 110 111 109 110 111 110 106 99 92 87 85 81 78 78 75 74 76 74 69 67 63 56 52 48 45 42 33 24 18 16 11 2 358 356 354 355 352 348 342 334 327 317 313
205 211 196 140 129 116 119 139 127 92 119 149 131 110 120 117 124 125 140 138 116 122 129 127 129 121 122 136 129 120 115 111 102 70 90 99 93 90 89 95 100 95 91 101 110 114 114 113 113 113 110 108 108 111 115 116 114 112 111 108 97 85 76 70 73 78 79 79 76 76 78 76 71 70 67 63 59 55 54 51 46 42 34 28 17 5 7 7 1 353 348 345 339 332 325 317 314
201 194 157 132 126 127 138 155 145 105 130 149 276 108 135 156 148 143 154 147 130 128 132 134 136 132 135 143 135 127 127 118 111 94 90 91 90 88 83 89 97 98 100 105 110 112 114 113 113 111 109 109 110 114 117 117 114 113 111 106 96 88 87 82 81 85 83 80 79 75 73 70 65 63 60 61 58 53 55 51 47 46 35 30 24 16 18 18 10 358 353 349 338 333 332 323 320
180 154 142 138 137 140 149 141 103 113 111 109 329 22 123 171 172 157 156 147 140 139 140 140 141 140 142 146 140 132 134 127 116 108 100 92 89 90 90 91 97 105 106 106 108 109 111 112 111 110 108 108 109 112 113 109 107 107 105 102 97 91 92 91 86 86 83 79 75 68 63 59 53 52 49 49 48 43 43 43 39 33 24 21 15 10 10 7 4 359 353 347 338 340 344 335 330
155 151 145 140 142 140 145 126 99 121 149 140 185 170 134 167 169 160 164 158 154 157 156 153 150 149 149 153 146 131 129 127 121 121 115 99 92 97 103 100 101 106 105 107 109 108 108 109 109 108 106 105 106 108 107 105 105 103 99 98 96 91 88 87 84 81 76 69 64 57 52 48 44 44 43 41 39 34 32 33 30 23 19 16 7 1 2 0 358 354 348 344 342 342 343 340 336
125 137 124 98 92 93 108 131 109 125 205 175 182 194 152 160 178 171 173 177 176 171 164 161 159 156 156 155 145 133 131 130 122 117 109 100 99 103 106 102 102 106 107 108 109 108 108 105 104 102 100 100 99 97 96 95 95 95 93 93 92 92 90 85 77 68 63 58 53 47 42 41 39 37 37 35 32 31 31 31 29 24 21 15 6 358 354 352 350 348 346 343 342 337 334 335 334
125 130 114 97 85 73 73 70 98 167 226 183 182 191 175 174 191 186 187 189 181 174 164 163 162 157 157 153 145 141 138 135 125 113 106 104 104 105 105 103 103 107 110 111 111 109 105 102 100 97 94 93 90 87 86 85 83 83 84 87 87 87 84 78 69 60 55 51 49 46 43 41 38 34 33 31 29 30 31 30 27 23 19 14 6 357 348 343 340 340 339 334 330 329 328 327 327
144 138 128 129 111 106 125 85 144 210 209 168 181 185 196 205 195 198 203 193 179 177 167 164 163 157 153 146 142 142 137 133 125 116 119 116 109 107 107 106 106 108 109 110 110 108 104 102 100 96 91 87 84 83 82 81 81 80 81 82 81 80 77 72 67 60 53 50 47 46 44 42 38 35 33 31 29 32 33 31 29 28 28 27 23 17 8 358 350 345 343 337 332 327 324 324 324
172 154 155 168 158 162 185 171 190 209 176 36 169 174 203 224 190 201 201 192 187 185 172 164 161 154 150 143 137 135 132 130 123 123 132 120 114 116 113 111 110 109 109 110 110 108 105 102 99 95 89 86 84 83 83 82 81 80 79 79 78 77 74 71 67 62 57 54 49 46 45 43 40 37 35 35 32 33 37 38 40 41 40 39 36 34 29 22 18 14 7 358 350 344 338 334 330
186 168 174 187 174 172 188 174 159 173 136 39 101 162 211 206 92 265 198 190 184 180 173 165 158 152 149 144 139 135 131 130 127 131 133 118 117 124 123 118 114 111 111 112 112 109 106 102 97 94 91 88 86 85 84 83 82 80 78 78 77 76 74 71 69 67 64 59 54 52 50 46 44 40 37 38 35 37 43 45 46 45 42 39 36 34 31 28 26 25 21 12 5 1 356 351 342
187 159 172 189 182 182 187 176 171 150 124 74 120 171 207 171 117 340 216 173 165 165 164 157 152 149 148 145 142 138 136 136 136 136 130 123 126 127 122 120 118 115 112 111 111 110 107 103 97 95 94 92 90 87 86 83 82 80 77 77 77 77 77 74 72 70 67 64 60 58 55 51 50 47 43 43 44 46 49 48 47 45 42 39 36 32 30 28 26 26 22 16 11 5 2 360 355
194 113 161 193 181 150 124 144 130 122 125 126 157 183 304 31 359 315 166 154 153 152 149 149 150 149 150 149 146 144 143 146 146 140 132 128 128 123 119 120 121 117 113 113 113 111 108 105 101 99 98 96 93 90 88 85 83 81 78 79 79 80 80 77 75 72 68 67 65 63 61 58 56 53 50 51 52 51 51 49 47 45 42 39 36 34 31 30 28 25 21 17 12 6 2 360 359
149 183 193 174 107 109 116 94 48 99 172 162 147 138 124 192 176 148 151 149 147 146 147 152 153 154 158 156 152 150 149 152 151 145 138 133 127 122 124 129 125 120 117 117 116 114 112 108 105 103 99 97 94 92 90 88 86 83 80 80 80 79 79 77 76 74 71 71 69 67 64 60 57 56 53 53 53 51 50 49 46 44 43 40 37 35 33 31 29 25 21 17 10 3 359 358 356
149 190 176 112 69 75 127 150 119 186 197 160 139 165 169 183 173 151 149 146 148 151 153 155 156 160 163 160 156 153 151 152 148 143 137 129 126 125 129 131 125 121 122 121 120 119 115 112 108 105 101 98 95 93 93 92 90 86 82 81 80 79 79 77 76 75 74 72 69 67 64 61 59 58 56 53 52 51 49 48 46 44 42 40 38 37 35 33 30 25 20 15 9 2 359 358 354
159 170 153 135 196 196 165 168 168 180 189 152 146 173 190 206 175 157 155 157 163 162 161 162 164 166 164 158 158 154 152 152 147 145 137 126 127 129 129 127 122 123 124 122 121 119 115 112 108 103 100 98 97 95 95 94 93 91 86 83 81 80 79 78 77 76 74 72 70 68 67 65 62 60 57 55 52 50 47 45 45 43 42 40 38 37 36 33 30 25 18 12 8 4 0 359 357
64 149 166 185 269 190 168 163 171 180 184 167 144 165 214 227 183 170 169 171 172 169 170 171 169 168 164 159 159 155 154 156 151 146 134 126 128 130 131 129 126 125 123 120 119 116 113 110 105 103 101 100 98 96 96 95 93 94 91 87 83 81 81 79 77 77 75 73 72 72 70 67 64 60 57 56 53 49 47 44 42 41 39 37 35 34 34 32 28 24 18 11 7 5 3 359 357
160 174 183 178 114 128 173 143 85 174 179 169 157 180 218 213 183 184 182 178 176 174 172 170 167 166 162 158 157 155 157 157 149 138 130 128 131 132 133 131 126 122 117 115 115 114 114 111 107 105 103 100 98 96 97 96 95 95 93 89 86 84 82 81 80 79 78 76 75 74 71 68 65 61 57 54 52 50 48 45 41 39 36 34 32 31 30 28 24 20 17 12 7 5 4 0 357
177 181 183 180 167 160 185 188 145 104 152 163 171 204 202 147 181 203 192 182 177 172 166 162 163 163 159 157 157 156 157 153 141 132 131 130 132 134 133 129 122 115 110 108 111 114 114 112 109 106 101 98 97 97 97 96 95 94 91 90 88 85 84 84 83 81 79 77 75 73 70 67 63 60 57 54 52 52 50 45 41 38 35 33 30 29 29 26 23 20 17 13 9 7 4 1 358
Height
784 783 782 782 780 780 782 784 800 808 810 819 818 816 806 797 799 798 797 792 791 794 791 789 788 787 790 791 791 791 793 794 796 805 806 796 795 797 798 800 801 804 806 808 811 813 816 819 820 820 821 821 821 822 823 824 825 826 826 826 826 827 828 829 829 830 830 830 830 830 830 831 832 833 834 834 834 834 835 835 835 835 835 835 835 836 836 836 837 837 838 838 838 838 839 839 839
783 783 782 782 780 782 789 791 809 817 816 824 819 813 805 798 799 795 795 793 792 792 789 788 788 789 789 787 788 792 795 793 791 795 796 795 797 798 800 801 802 804 806 808 810 813 816 818 820 821 821 822 822 822 823 824 826 826 827 827 828 829 829 830 831 831 831 831 831 831 832 832 833 834 835 835 835 836 836 836 836 836 836 836 837 837 837 837 838 838 839 839 839 840 840 840 840
783 783 782 782 782 784 793 796 810 820 821 822 814 808 804 799 795 791 792 790 790 789 788 789 789 791 791 791 791 795 797 794 791 792 794 796 797 799 801 802 804 805 806 809 810 813 816 818 820 821 822 822 822 823 824 825 826 827 828 828 829 830 830 831 832 832 833 833 832 833 833 834 835 835 836 836 836 837 837 837 838 838 838 838 838 838 838 839 839 839 840 840 841 841 841 841 841
783 782 782 782 786 790 796 804 809 815 818 818 811 804 800 796 790 790 790 787 787 787 788 790 792 791 790 795 794 796 798 794 792 792 795 797 797 799 801 803 805 806 808 809 811 814 816 818 820 822 822 823 823 823 824 825 827 828 828 829 829 830 831 832 833 833 833 834 833 834 834 835 836 836 837 837 837 838 838 838 839 839 839 839 839 839 840 840 840 841 841 841 842 842 842 842 842
783 783 783 781 789 794 800 812 816 814 810 809 806 798 796 793 790 791 789 788 787 787 788 789 794 792 790 794 795 796 797 794 794 793 795 797 798 800 802 804 806 807 809 811 812 814 817 818 820 822 823 823 823 824 824 826 827 828 829 829 830 831 832 833 833 834 834 834 834 835 835 836 836 837 838 838 838 839 839 840 840 840 840 840 840 841 841 841 842 842 842 843 843 843 843 843 843
783 783 783 782 790 795 801 812 815 812 799 796 799 793 792 792 791 791 790 789 787 786 786 788 792 792 794 794 792 794 795 795 795 794 795 797 799 801 803 805 807 809 810 812 813 815 818 819 820 822 823 824 824 824 825 826 827 828 829 830 831 832 832 833 834 834 835 835 835 836 836 837 837 838 838 839 839 840 840 840 841 841 842 842 842 842 842 842 843 843 843 843 844 844 844 844 844
783 784 786 788 794 796 803 808 805 805 796 794 796 790 791 791 792 792 791 791 788 787 786 788 787 791 798 795 794 794 794 795 794 795 796 797 800 801 804 806 808 810 811 813 814 817 818 819 821 822 823 824 824 825 825 826 828 829 829 831 832 832 833 834 834 835 835 836 836 836 837 838 838 839 839 840 840 841 841 842 842 842 843 843 843 843 843 843 843 844 844 844 844 845 845 845 845
782 786 791 793 801 805 809 810 804 803 799 797 796 792 791 791 792 792 792 792 791 789 789 789 785 793 798 793 797 797 794 795 794 796 797 798 800 802 804 806 808 810 812 813 815 818 819 820 822 823 823 824 824 825 826 827 828 829 830 831 832 833 834 834 835 836 836 837 837 837 838 838 839 840 840 841 841 842 842 843 843 843 844 844 844 844 844 844 844 845 845 845 845 845 845 846 846
783 787 794 795 804 811 811 812 807 803 801 798 796 791 789 791 792 792 791 791 791 790 790 789 785 793 798 795 798 796 794 796 795 797 798 799 801 802 805 806 808 810 812 814 816 818 820 821 822 823 824 824 825 826 827 827 829 830 831 832 832 833 834 835 836 836 837 838 838 838 838 839 840 841 841 842 842 843 843 843 843 844 844 845 845 845 845 845 845 845 846 846 846 846 846 846 846
785 789 795 799 805 811 812 810 806 803 800 796 793 788 787 790 791 791 790 789 788 789 790 787 787 792 795 798 799 796 797 797 796 798 799 800 802 803 805 807 809 810 812 814 816 818 820 822 823 824 824 825 825 826 827 828 829 830 831 832 833 834 834 836 836 837 838 839 839 839 840 840 841 842 843 843 843 844 844 844 844 844 845 845 846 845 845 845 845 846 846 846 847 847 847 847 847
790 793 794 802 809 810 809 805 803 801 798 795 791 786 785 786 788 790 789 790 787 788 789 787 790 792 794 799 799 797 798 797 797 798 800 801 803 804 806 808 810 811 813 814 816 819 821 823 824 824 825 825 826 826 828 829 830 830 832 832 833 834 835 836 837 838 839 839 840 840 841 842 843 843 844 844 845 844 844 844 845 845 845 846 846 846 846 846 846 846 847 847 847 847 847 848 848
792 797 796 804 808 806 806 805 803 800 797 796 790 783 783 784 788 788 786 789 787 789 787 785 788 788 796 801 798 798 798 798 798 798 800 802 803 805 807 809 811 812 814 815 817 819 821 823 824 825 825 825 826 827 828 829 830 831 832 833 834 835 836 837 838 839 840 840 841 841 842 843 844 844 845 845 845 845 845 845 845 845 846 846 846 846 846 846 846 846 847 847 847 847 848 848 848
791 797 797 804 807 805 809 809 805 803 797 792 786 782 783 784 786 782 781 785 785 789 784 780 782 784 796 800 797 798 798 798 798 799 801 802 804 806 808 810 812 814 815 816 818 820 822 823 824 825 825 826 826 827 829 830 831 832 833 834 835 836 837 838 839 840 841 841 842 842 843 844 844 845 845 846 846 846 846 846 846 846 846 847 847 847 847 846 846 846 847 847 847 847 848 848 848
789 795 794 802 810 808 808 805 803 804 794 784 783 782 782 782 781 778 780 785 784 783 778 775 778 784 794 799 801 799 797 798 798 799 801 803 805 807 809 811 813 814 816 817 819 821 822 823 824 825 826 826 827 828 830 831 832 833 834 835 836 837 838 839 840 841 842 842 842 843 844 844 845 845 846 846 847 846 846 847 846 847 847 847 847 847 847 847 847 847 847 847 847 848 848 849 849
788 792 794 800 809 809 805 801 800 800 790 782 784 782 780 779 777 779 779 781 781 775 774 777 777 783 791 794 797 794 794 797 797 800 801 804 806 808 810 812 814 815 817 818 819 821 822 824 824 825 826 827 828 829 831 832 833 834 835 836 837 838 839 840 841 842 842 843 843 844 844 845 845 846 846 846 847 847 847 847 847 847 847 847 848 847 847 847 847 847 847 847 848 848 848 849 849
787 790 796 801 805 806 801 800 800 798 788 782 782 780 780 778 776 779 774 773 778 775 775 780 778 780 783 784 785 787 792 796 797 800 802 805 807 809 812 813 815 816 818 819 820 822 823 824 824 825 826 827 829 830 831 833 834 835 836 837 838 839 840 840 841 842 843 843 844 844 845 846 846 846 846 847 847 847 847 847 847 847 848 848 848 848 848 847 847 847 847 848 848 848 849 849 849
786 789 798 802 803 802 797 797 797 792 784 780 781 780 782 780 776 775 770 770 777 778 779 780 778 777 778 780 781 786 792 795 798 801 803 805 807 809 812 814 815 817 819 820 821 823 824 825 825 826 827 828 829 830 832 833 835 836 837 838 839 840 840 841 842 842 843 844 845 845 845 846 846 847 847 847 847 847 847 847 847 848 848 848 848 848 848 847 847 847 847 848 848 849 849 850 850
786 792 799 798 798 796 791 790 788 786 783 779 779 781 782 780 778 773 772 776 778 781 782 780 780 779 779 781 783 788 793 796 799 801 803 805 807 809 811 814 816 817 819 821 823 824 824 825 825 827 827 829 830 831 833 834 836 836 837 838 839 841 841 841 842 843 844 844 845 845 846 846 847 847 847 847 847 847 847 847 847 848 848 848 848 848 848 848 847 847 847 848 849 849 849 850 850
787 795 798 793 792 789 785 785 784 784 782 778 778 780 781 778 776 774 777 783 780 783 786 784 785 785 784 785 786 790 793 797 800 801 804 805 807 809 811 814 816 818 820 822 823 824 825 826 827 828 828 829 830 832 833 835 836 837 838 839 840 841 841 842 842 843 844 844 845 846 846 846 847 847 847 847 847 847 847 847 848 848 848 848 848 848 848 848 848 848 847 848 849 849 850 850 851
786 792 795 789 788 786 784 784 782 781 780 780 779 778 779 776 774 774 779 784 781 782 785 785 787 787 787 786 787 791 794 798 800 802 804 806 808 810 812 815 817 819 821 822 824 825 826 827 828 828 829 830 831 833 834 835 836 837 838 839 840 841 842 842 842 843 844 845 845 846 846 847 847 847 847 847 847 847 847 848 848 848 848 848 848 848 848 848 848 848 848 848 849 850 850 851 851
785 787 788 785 787 786 781 780 779 779 780 781 780 779 779 775 774 776 780 785 784 780 778 778 780 781 784 786 788 792 795 798 800 803 805 808 810 812 814 816 818 820 821 823 824 826 827 828 828 829 830 831 832 834 835 836 836 837 838 839 840 841 842 842 843 844 844 845 845 846 846 846 847 847 847 847 848 848 848 848 848 848 848 848 848 848 848 848 849 849 849 849 849 850 850 851 851
784 785 783 782 786 784 777 776 778 779 780 780 781 779 777 774 775 776 779 783 782 777 775 775 775 775 778 782 787 791 795 799 801 804 807 809 811 813 816 817 819 821 823 824 825 826 827 828 829 829 831 832 833 834 835 836 837 837 838 840 841 842 842 843 843 844 844 845 845 846 846 847 847 847 847 848 848 848 848 848 848 848 848 848 848 848 848 848 849 849 849 849 850 850 850 851 851
783 784 783 781 782 781 776 776 777 777 779 779 779 777 774 776 778 776 778 781 777 772 772 774 777 779 780 782 787 792 796 800 802 805 808 810 812 815 817 818 820 822 823 825 825 827 828 829 829 830 831 833 834 835 836 836 837 838 839 840 841 842 843 843 844 844 845 845 846 846 847 847 847 847 847 847 848 848 848 848 848 848 848 848 848 848 848 848 849 849 849 849 850 850 850 851 851
782 783 782 780 779 779 776 775 776 776 777 777 776 775 774 776 778 777 779 780 776 772 772 775 780 783 786 788 790 794 798 801 804 807 809 811 814 816 818 820 821 822 824 825 826 827 828 829 830 831 832 833 834 835 836 837 837 838 839 840 841 842 843 843 844 844 845 845 846 846 847 847 847 847 847 847 847 847 847 848 848 848 848 848 848 848 848 848 849 849 849 849 849 850 850 850 850
783 782 780 778 778 776 773 775 776 775 775 775 776 776 774 772 774 778 781 780 777 775 774 778 783 787 790 792 794 796 799 802 805 807 809 812 814 817 819 820 822 823 825 826 827 828 829 830 830 832 833 834 835 836 836 837 838 839 840 841 842 842 843 843 844 844 845 845 846 846 846 846 846 846 847 847 847 847 847 847 847 847 848 848 848 848 848 848 848 848 849 849 849 849 849 849 849
779 778 778 776 775 773 773 774 773 773 774 774 777 779 775 772 773 780 783 779 778 778 779 783 787 791 794 795 797 799 801 803 805 807 809 812 814 817 819 821 822 824 825 826 827 829 829 830 831 832 833 834 835 836 837 837 838 839 840 841 842 842 843 843 844 844 845 845 845 846 846 846 846 846 846 846 846 847 846 846 847 847 847 847 848 848 848 848 848 848 848 848 849 849 849 848 848
775 775 776 775 774 773 773 773 771 772 773 772 777 781 778 773 775 783 783 778 779 781 785 788 792 796 798 799 800 801 803 804 806 807 810 812 815 817 819 820 822 824 826 827 828 829 830 831 832 833 834 834 835 836 837 838 838 839 840 841 842 842 843 843 844 844 844 845 845 845 845 845 845 845 845 846 846 846 846 846 846 846 847 847 847 847 847 847 847 847 847 848 848 848 847 847 847
774 775 775 775 774 774 772 772 771 771 772 770 773 779 779 775 778 783 782 780 782 785 790 792 796 800 802 803 804 804 805 806 807 809 811 814 816 817 819 821 822 824 826 827 829 830 831 832 833 834 834 835 836 837 837 838 839 839 840 841 842 842 843 843 844 844 844 844 845 845 845 845 845 845 845 845 845 845 846 845 845 845 846 846 846 846 846 846 846 846 846 846 846 846 846 846 846
774 775 776 774 773 772 769 769 770 770 771 769 769 779 784 783 785 785 782 782 784 788 794 797 799 802 806 808 808 808 808 808 809 811 813 815 817 819 820 821 823 824 826 828 829 830 831 832 833 834 835 836 837 837 838 838 839 839 840 841 841 842 842 843 844 844 844 844 844 844 844 845 844 844 844 844 844 844 845 845 845 845 845 845 845 845 845 845 845 846 845 845 845 845 845 845 844
774 775 776 775 777 773 767 768 770 769 772 768 769 784 790 789 790 787 784 784 787 793 798 799 799 800 807 812 813 814 813 811 812 812 814 816 819 820 821 822 824 825 827 828 829 831 832 833 834 835 835 836 837 837 838 839 839 840 840 840 841 842 842 843 843 844 844 844 844 844 844 844 844 844 844 844 843 844 844 844 844 845 845 845 845 845 845 845 845 845 845 844 844 844 844 843 843
774 777 779 780 783 775 766 770 769 769 775 770 770 783 789 790 792 790 788 786 790 797 798 798 799 800 806 812 815 817 819 818 815 814 815 817 819 821 822 823 824 825 827 828 830 831 832 833 834 835 836 837 837 838 838 839 839 840 840 840 841 842 842 843 843 843 843 844 844 844 844 844 844 844 844 843 843 843 843 844 844 844 844 844 844 844 844 845 844 844 844 843 843 843 843 842 842
776 780 784 786 785 775 768 772 770 769 775 773 772 783 789 790 793 793 791 791 794 797 797 797 800 802 806 812 814 816 822 822 817 815 816 818 819 820 822 823 825 826 826 828 829 831 832 833 834 835 836 837 838 838 838 839 839 840 840 841 841 842 842 843 843 844 844 844 844 844 844 844 844 844 844 843 843 843 843 843 843 844 844 844 844 844 844 844 844 844 843 843 842 842 842 841 841
780 781 784 786 784 778 773 774 773 770 773 775 775 783 791 792 794 795 794 796 799 802 805 802 800 803 807 812 814 813 820 821 817 817 817 818 819 820 822 823 824 826 827 828 829 830 832 833 835 836 836 837 838 838 838 839 839 840 840 841 842 842 842 843 843 844 844 844 845 845 845 844 844 844 844 843 843 843 843 843 844 844 844 844 844 844 844 844 843 843 843 842 842 841 841 840 840
782 782 782 785 785 782 777 774 775 771 772 778 779 786 797 798 797 798 797 798 802 810 816 812 807 808 808 811 814 813 817 819 818 818 818 819 820 821 822 823 824 826 827 828 829 830 832 833 835 836 837 837 838 838 838 839 840 840 841 841 842 842 843 843 844 844 844 845 845 845 845 845 844 844 844 844 844 844 844 843 844 844 844 844 844 844 844 844 843 842 842 842 841 841 840 839 839
780 782 780 783 785 785 782 778 780 776 774 781 785 795 807 805 802 801 797 795 799 806 812 814 813 811 808 810 814 814 816 818 819 819 819 820 820 821 823 824 825 826 827 828 829 831 832 833 835 836 837 838 838 839 839 840 840 841 841 841 842 843 843 844 844 845 845 845 845 845 845 845 845 845 844 844 844 844 844 844 844 844 844 844 844 844 844 843 843 842 842 841 841 840 839 839 838
775 777 774 778 779 782 786 783 784 781 782 791 792 800 810 808 805 801 797 796 798 804 808 810 813 812 810 813 815 814 815 818 819 820 820 821 821 822 824 825 826 827 828 829 830 831 832 833 835 836 837 838 839 839 840 840 841 841 842 842 843 844 845 845 845 846 846 846 846 845 845 845 845 845 845 844 844 844 844 844 845 845 844 844 844 844 843 843 842 842 841 841 840 839 839 838 837
773 774 775 779 777 781 788 787 786 783 789 801 800 802 811 810 806 802 798 798 801 807 809 810 812 812 814 816 817 817 817 818 819 821 822 822 823 824 825 826 827 829 829 829 830 831 833 834 835 837 838 839 839 840 840 841 841 841 842 843 844 845 846 846 846 846 846 846 846 846 846 845 845 845 845 845 844 844 844 845 845 845 845 844 844 844 843 843 842 841 841 840 839 839 838 837 837
775 774 776 780 779 784 792 790 787 782 790 805 802 805 813 811 807 804 800 801 806 808 809 812 815 817 820 820 819 820 820 820 820 822 823 823 825 825 826 828 829 830 830 830 832 833 834 835 836 837 838 840 840 840 841 841 842 842 843 844 845 846 846 846 847 847 847 847 847 847 846 846 846 846 846 845 845 845 845 845 845 845 845 845 844 844 843 843 842 841 840 840 839 839 838 837 836
777 778 777 779 781 785 790 791 788 781 790 805 803 807 817 813 809 806 803 804 809 811 810 813 817 819 825 827 825 825 824 823 824 825 825 826 827 827 828 830 830 831 832 832 834 834 835 836 837 838 839 840 841 841 841 842 842 843 844 845 845 846 847 847 847 848 848 847 847 847 847 847 847 847 847 846 846 846 845 845 845 845 845 845 844 844 843 843 842 841 840 840 839 838 837 836 835
778 779 777 780 784 784 786 793 792 784 789 800 802 810 817 815 813 811 808 807 811 814 813 814 815 816 824 829 830 831 831 830 830 829 829 829 829 830 831 832 833 833 834 834 835 835 836 837 838 839 840 841 841 842 842 842 843 843 844 845 846 846 847 848 847 848 848 848 848 848 848 848 848 848 847 847 847 846 846 846 845 845 845 844 844 844 843 843 842 841 840 839 839 838 836 835 834
781 781 778 779 783 785 787 793 791 788 792 793 796 811 819 817 817 817 812 811 814 816 815 816 817 817 822 829 829 831 834 835 835 833 832 831 831 833 834 833 834 834 835 836 836 837 838 839 839 840 841 841 842 842 843 843 843 844 845 846 846 847 847 848 847 848 848 848 849 849 848 848 848 848 847 847 847 847 846 846 845 845 845 844 844 844 843 842 841 841 840 839 838 837 836 835 833
781 781 778 776 780 786 792 793 790 795 803 796 794 812 826 821 818 820 816 814 817 817 816 819 821 820 822 829 828 827 832 835 836 836 834 833 833 835 835 834 834 835 837 837 837 838 839 840 841 841 842 842 842 843 844 844 844 844 845 846 847 847 847 848 848 848 849 849 849 849 849 848 848 848 847 847 847 847 846 846 845 845 844 844 844 843 843 842 841 840 839 838 837 836 835 834 832
781 779 777 778 779 784 791 789 787 795 802 798 793 805 825 826 819 819 817 817 820 818 818 820 821 822 823 826 826 825 829 832 834 835 835 834 833 835 837 836 836 837 839 839 839 839 840 841 842 842 842 843 843 844 844 845 844 844 845 845 847 847 848 848 849 849 849 849 850 849 849 848 848 848 847 847 847 847 846 846 846 845 844 844 843 843 842 841 840 839 838 838 837 835 834 833 831
780 778 776 778 778 783 789 785 786 795 798 800 796 795 815 826 819 817 816 818 822 820 820 821 821 823 823 824 825 824 828 831 833 835 836 836 835 837 839 839 839 839 840 840 840 841 841 842 842 842 843 843 844 845 845 844 844 845 845 845 846 847 848 849 849 849 849 849 849 849 848 848 847 847 847 847 846 846 846 845 845 844 843 843 843 842 841 840 839 838 837 837 836 835 834 833 831
775 777 775 775 776 781 784 782 788 797 796 804 804 794 809 824 817 815 818 819 822 822 821 822 822 823 824 825 825 825 828 832 833 835 836 836 836 838 840 840 841 841 841 841 842 842 842 842 842 842 843 844 845 845 845 845 845 845 845 845 846 847 849 849 849 849 849 849 848 848 847 847 847 847 847 847 846 846 846 845 845 844 843 842 842 841 841 840 838 837 837 836 836 835 834 833 831
773 776 775 776 779 783 784 784 789 796 798 805 806 795 807 824 820 816 820 818 818 819 818 820 821 822 823 825 825 825 828 832 833 834 835 836 837 839 841 841 841 842 842 842 843 843 843 843 843 843 844 845 846 846 845 845 846 846 846 846 846 847 849 849 849 848 848 848 847 847 847 846 847 847 847 847 847 847 846 846 845 844 843 842 841 841 840 839 838 837 836 835 835 834 833 832 831
771 774 775 780 784 785 787 788 789 797 803 801 798 794 803 820 820 814 813 809 806 810 816 819 820 821 823 825 825 825 828 831 832 834 836 837 839 841 841 842 843 843 844 843 843 844 844 844 844 844 846 846 846 846 846 846 846 847 847 847 847 848 848 848 848 848 847 847 847 847 847 847 847 848 848 848 847 847 847 846 845 844 843 842 841 841 840 839 838 836 835 834 833 833 831 830 830
768 770 774 783 789 789 792 795 795 802 805 798 795 796 799 809 812 805 800 798 797 802 810 816 818 821 823 824 826 827 828 830 830 833 837 838 839 842 843 843 844 844 845 844 844 845 845 845 845 845 846 847 846 847 847 847 847 848 848 847 848 848 848 848 847 847 847 847 847 848 848 848 849 849 849 849 848 848 847 846 845 844 843 842 841 840 839 838 837 836 834 833 832 831 830 829 828
766 768 774 784 794 798 800 801 801 802 803 802 801 801 801 800 797 794 792 793 796 797 802 810 814 818 822 824 827 828 829 830 830 832 836 837 839 842 843 844 845 845 846 846 845 846 846 847 846 845 846 848 848 848 848 848 849 849 849 848 849 849 848 848 848 848 848 848 849 849 849 850 850 850 850 850 850 849 848 847 845 844 843 842 841 840 839 838 836 835 833 832 831 830 829 828 827
766 767 771 780 792 803 809 808 808 806 803 806 806 804 805 799 794 797 794 789 792 795 800 807 812 816 819 823 826 828 829 829 831 833 835 836 839 842 843 844 845 846 846 846 846 847 847 848 847 845 847 849 849 850 850 850 850 850 850 850 850 849 849 848 848 849 849 849 850 850 850 851 851 852 852 852 852 851 849 848 847 846 844 843 842 840 839 838 836 835 833 832 831 830 829 827 826
766 763 765 773 779 789 799 798 800 804 804 809 810 806 804 799 801 805 798 790 791 795 803 808 812 816 818 821 823 826 828 829 831 833 835 836 839 841 842 843 845 846 847 847 847 847 847 848 848 847 848 850 850 851 851 851 851 851 851 850 850 850 849 849 850 850 851 851 851 852 852 853 853 854 854 853 853 852 850 849 848 847 845 844 842 841 839 838 836 835 834 833 832 831 829 828 826
769 766 767 772 768 773 792 797 796 799 801 807 811 810 808 802 803 804 797 794 795 799 806 810 813 817 818 820 822 824 827 829 831 832 835 837 839 841 842 843 845 846 846 847 848 848 848 848 849 849 850 851 852 852 852 852 852 852 852 852 851 851 851 851 852 852 852 852 853 853 854 854 855 855 856 855 854 852 851 850 849 848 846 844 843 841 839 838 836 835 834 833 832 831 830 829 827
769 770 769 768 762 768 790 803 806 801 795 802 810 812 813 807 804 804 800 799 802 805 809 811 814 817 818 819 821 823 826 829 831 832 834 837 838 840 842 844 845 845 846 847 848 849 849 849 850 851 852 853 853 853 853 853 853 853 853 853 853 853 853 854 854 854 854 854 854 855 855 856 857 857 857 856 855 854 853 851 850 849 847 845 844 842 840 839 837 836 835 834 833 831 831 829 828
764 768 762 763 767 769 777 790 804 801 793 804 813 810 809 807 804 805 804 805 807 808 810 813 815 817 818 820 821 823 826 828 830 832 834 836 837 840 843 844 845 845 846 847 848 850 851 851 852 852 853 854 854 854 854 854 855 855 855 855 855 855 855 856 856 855 855 855 856 856 857 858 858 858 858 857 856 855 854 853 851 850 848 847 845 843 842 840 838 837 836 835 834 832 831 830 829
754 756 752 759 770 776 779 786 796 798 797 806 812 810 805 799 799 803 803 805 806 807 809 811 813 815 817 820 822 824 826 828 830 833 833 835 837 840 843 844 845 846 847 848 849 851 851 852 853 853 854 855 856 856 856 856 856 856 857 857 857 857 857 857 857 856 856 857 857 858 858 859 859 859 859 858 857 856 855 854 853 852 850 848 847 845 843 842 840 839 837 836 835 833 832 831 829
753 752 752 757 763 768 774 779 780 786 796 802 810 819 809 791 790 795 795 797 799 801 804 806 809 812 814 818 821 824 826 828 830 832 832 834 837 841 843 845 846 846 847 848 850 851 852 853 853 854 855 856 857 857 857 857 858 858 858 858 858 859 859 858 858 857 857 858 859 859 860 860 860 860 860 859 859 858 857 856 855 853 852 850 849 846 845 843 841 840 839 837 836 834 833 831 830
755 757 759 761 765 765 768 776 776 778 789 797 804 811 799 782 780 782 781 786 789 792 798 803 807 810 812 817 820 822 825 828 829 830 831 834 838 842 844 845 846 846 847 848 850 851 852 854 855 855 857 858 858 859 859 859 859 859 859 859 860 860 860 859 859 859 859 859 860 860 861 862 862 862 861 861 860 859 858 857 856 855 853 852 850 848 846 844 843 841 840 838 837 835 834 832 830
747 753 756 757 762 766 770 781 784 778 782 789 792 789 781 778 781 777 774 779 786 790 796 802 807 809 813 817 818 820 823 825 827 829 832 835 838 841 843 844 845 845 847 849 851 853 854 855 857 857 859 859 860 860 860 861 861 861 861 861 861 861 861 861 860 860 861 861 861 862 862 863 863 863 863 862 861 860 859 858 857 855 854 853 851 849 847 845 844 842 840 839 837 836 834 832 830